Location: Cheching
(60.0667°N, 164.2167°W)
Time: 14:31:54
(UTC+00:00)

LilacSat-2 - Pass Details

Date: 17 January 2021
Orbit: 512 x 533 km, 97.5° (Epoch: 05 March)

Event Time Altitude Azimuth Distance (km) Brightness Sun altitude
Rises 16:42:30 0° 18° (NNE) 2,679 ? -20.8°
Reaches altitude 10° 16:44:40 10° 24° (NNE) 1,788 ? -20.5°
Maximum altitude 16:48:25 49° 100° (E) 695 ? -20.1°
Drops below altitude 10° 16:52:10 10° 176° (S) 1,784 ? -19.6°
Sets 16:54:20 0° 182° (S) 2,672 ? -19.3°
